Location: Unspecified
(0.0000°N, 0.0000°E)
Time: 09:20:08
(UTC+00:00)

Explorer 11/Cluster Stage 4 - Pass Details

Date: 14 July 2020
Orbit: 467 x 1259 km, 28.8° (Epoch: 03 August)

Event Time Altitude Azimuth Distance (km) Brightness Sun altitude
Rises 07:11:21 0° 255° (WSW) 2,485 8.5 15.2°
Reaches altitude 10° 07:13:35 10° 265° (W) 1,629 7.7 15.7°
Maximum altitude 07:16:56 34° 331° (NNW) 835 6.9 16.5°
Drops below altitude 10° 07:20:40 10° 38° (NE) 1,812 9.7 17.3°
Sets 07:23:17 0° 47° (NE) 2,818 10.8 17.9°
